Regional Weather Roundup
Issued by NWS Bismarck, ND

Home | Current Version | Previous Version | Text Only | Print | Product List | Glossary On
Versions: 1 2 3 4 5 6 7 8 9 10 11 12 13 14 15 16 17 18 19 20 21 22 23 24 25 26 27 28 29 30 31 32 33 34 35 36 37 38 39 40 41 42 43 44 45 46 47 48 49 50
000
ASUS43 KBIS 222110
RWRBIS

NWR BROADCAST TEXT
NATIONAL WEATHER SERVICE BISMARCK ND
400 PM CDT THU JUN 22 2017

NOTE: "FAIR" INDICATES FEW OR NO CLOUDS BELOW 12,000 FEET WITH NO
SIGNIFICANT WEATHER AND/OR OBSTRUCTIONS TO VISIBILITY.


CITY           SKY/WX    TMP DP  RH WIND       PRES   REMARKS
WILLISTON      CLOUDY    69  34  27 NW25G40   29.84R
MINOT          CLOUDY    72  32  23 W28G43    29.75R
MINOT AFB      CLOUDY    69  34  27 W35G47    29.72S
BISMARCK       MOSUNNY   77  32  19 W21G31    29.82R
DICKINSON      CLOUDY    71  28  20 W22G37    29.87S
GARRISON         N/A     69  35  28 W26G37    29.79S
HETTINGER ARPT MOSUNNY   73  28  18 NW26G35   29.90S
JAMESTOWN      MOSUNNY   74  38  27 NW23G29   29.76S
HAZEN          FAIR      72  32  23 NW28G37   29.82S
LINTON         FAIR     N/A N/A N/A NW16G29   29.83F
MANDAN         MOCLDY    75  34  22 W23G32    29.82F
STANLEY        FAIR      68  36  30 NW23G38   29.81S
TIOGA          CLOUDY    64  36  34 NW33G45   29.81S
WATFORD CITY   FAIR      70  34  26 NW20G37   29.83S
$$

CITY           SKY/WX    TMP DP  RH WIND       PRES   REMARKS
GRAND FORKS    PTSUNNY   77  41  27 W23G32    29.68R
GRAND FORKS AF MOSUNNY   74  39  28 W23G32    29.69R
DEVILS LAKE    MOSUNNY   71  38  29 W29G38    29.70F
FARGO          SUNNY     79  38  22 W24G35    29.71R
CAVALIER       FAIR      73  37  27 W30G40    29.62S
GRAFTON        FAIR      73  39  29 W25G41    29.67R
GWINNER        PTCLDY    77  45  31 NW13G23   29.75S
LANGDON        FAIR      72  41  33 W33G45    29.65S
ROLLA            N/A     66  37  34 W33G46    29.67S
$$

CITY           SKY/WX    TMP DP  RH WIND       PRES   REMARKS
ABERDEEN       PTSUNNY   77  48  35 W7        29.78F
MOBRIDGE       MOSUNNY   79  35  20 NW13      29.80R
BUFFALO          N/A     73  32  22 NW29G37   29.85F
RAPID CITY     SUNNY     76  39  26 N10G26    29.93F
GLASGOW        CLOUDY    64  35  34 NW35G54   29.95R
SIDNEY         CLOUDY    73  32  22 NW31G38   29.86S
WOLF POINT     CLOUDY    71  33  24 NW35G49   29.90R
GLENDIVE       PTSUNNY   71  28  20 NW23G38   29.91F
MILES CITY     CLOUDY    76  33  21 W21       29.94F
BAKER          PTSUNNY   70  29  21 NW17G31   29.94S
$$

CITY           SKY/WX    TMP DP  RH WIND       PRES   REMARKS
BILLINGS       MOSUNNY   75  26  16 N18G32    30.02R
GREAT FALLS    MOSUNNY   66  30  26 N20G26    30.15R
REGINA         LGT RAIN  57  54  88 W24       29.75S
ESTEVAN        LGT RAIN  54  48  82 W26G37    29.79R
$$





USA.gov is the U.S. government's official web portal to all federal, state and local government web resources and services.